User: anonymous
Location: Unspecified
(0.0000°N, 0.0000°E)
Time: 08:48:34
(UTC+02:00)
Language:

ASC 2 Rocket - Orbit

View from above orbital plane
View from above orbital plane
View from above satellite
View from above satellite

Ground track
Ground track

The orbit data is extracted from the following two-line orbital elements,

1 21228U 91028B   14231.05302154  .00000508  00000-0  16477-3 0  3610
2 21228 023.9928 109.9912 1145465 114.3254 023.4121 12.52810763 68087
Epoch (UTC): 19 August 2014 01:16:21
Eccentricity: 0.1145465
inclination: 23.9928°
perigee height: 556 km
apogee height: 2350 km
right ascension of ascending node: 109.9912°
argument of perigee: 114.3254°
revolutions per day: 12.52810763
mean anomaly at epoch: 23.4121°
orbit number at epoch: 6808

The dashed part of the orbit path shows where the satellite is in the earth's shadow,  

DLR